IRIDIUM 33 DEB, 35631

Orbit data source: Space-Track

IRIDIUM 33 DEB, 35631 is space debris in LEO originally from a launch on Sun, 14 Sep 1997 UTC launched from the Tyuratam Missile And Space Complex (TTMTR). The debris from Iridium 33, an American commercial communications satellite, has been tracked extensively since its accidental collision with the defunct Russian satellite Cosmos 2251 in 2009. This event, occurring at high speed in low Earth orbit (LEO), generated thousands of pieces of space debris, significantly increasing the risk of further collisions. The Iridium 33 debris cloud has impacted space traffic management and orbital debris mitigation strategies, making it a subject of ongoing study in space situational awareness.

Loading next visibility...
Identifier
35631, 1997-051RD
Orbit
LEO
Country
Flag of USUS
Related business
Manufacturer
Unknown
Mission
Spacecraft
Bus & Motor
Unknown
Mass
Unknown
Launch date (UTC)
1997-09-14 (28 years ago)
Launch vehicle
Unknown
Launch site
Tyuratam Missile And Space Complex (TTMTR)
Object type
Payload
Rocket body
Debris
Shape & HBR
Unknown shape, 0.1 m
Radar Cross Section
Small (<0.1 m²)

Expand to show TLE details & history
Last TLE update: 1 day ago

TLE from 1 day ago
0 IRIDIUM 33 DEB
1 35631U 97051RD  25306.49598889  .00001390  00000-0  37522-3 0  9991
2 35631  86.3697  38.2926 0015000 252.5125 123.5043 14.47146409866151
Epoch: 2025-11-02T11:54Z
TLE epoch observation values (Epoch: 2025-11-02T11:54:13.440Z)
Latitude
16.10623°
Longitude
178.76982°
Altitude
743.29 km
Speed
7.481 km/s
True Right ascension
02h 37m 20s
True Declination
16° 00' 53"
Sunlit
Object was in full shadow at epoch
Visualization orbit readout
Latitude
Unknown
Longitude
Unknown
Altitude
Unknown
Speed
Unknown
Apparent Right ascension
Unknown
Apparent Declination
Unknown
Sunlit
N/A
Visualization observer readout
Local Sidereal Time
15:09:12
Azimuth
Unknown
Elevation
Unknown
Doppler factor
Unknown
Orbital elements
Apogee altitude
742.596 km
Perigee altitude
721.266 km
Semi-major axis
7,110.068 km
Eccentricity
0.0015
Inclination
86.3697°
RAAN
38.2926°
Arg. of periapsis
252.5125°
True anomaly
123.64748°
Mean anomaly
123.5043°
Eccentric anomaly
123.5759°
Mean motion
3.6202 °/min
Orbital period
99.44 mins
BSTAR
0.00037522
Loading maneuver chart data...
Computing Atmospheric mass density...
Loading historical data...
Loading historical data...
Loading historical data...
Loading historical data...
Loading historical data...
Loading historical data...
Loading historical data...

Documentation

Showing up to 5 results
|